Overview Statistics Trail Chart Weather Telemetry Raw packets
 

This is the latest recevied weather packets stored in our database for station/object N5ATR. If no packets are shown the sender has not sent any weather packets the latest 10 day(s).

<< 29 30 31 32 33 34 35 >>
Time Temp. Humidity Pressure Rain* Wind** Luminosity Snow
1788494675 19.44° C 55% 1021.4 hPa 0 mm - 0 W/m² -
1788494371 20° C 55% 1021.7 hPa 0 mm - 0 W/m² -
1788494067 19.44° C 55% 1021.5 hPa 0 mm - 0 W/m² -
1788493766 19.44° C 56% 1021.5 hPa 0 mm - 0 W/m² -
1788493461 19.44° C 57% 1021.8 hPa 0 mm - 0 W/m² -
1788493157 18.89° C 57% 1021.7 hPa 0 mm - 0 W/m² -
1788492853 19.44° C 57% 1021.5 hPa 0 mm - 0 W/m² -
1788492549 19.44° C 56% 1021.5 hPa 0 mm - 0 W/m² -
1788492244 20° C 55% 1021.7 hPa 0 mm - 0 W/m² -
1788491938 20° C 55% 1021.5 hPa 0 mm - 0 W/m² -
1788491633 20° C 55% 1021.5 hPa 0 mm - 0 W/m² -
1788491330 20° C 55% 1021.5 hPa 0 mm - 0 W/m² -
1788491025 20.56° C 54% 1021.4 hPa 0 mm - 0 W/m² -
1788490721 20.56° C 54% 1021.2 hPa 0 mm - 0 W/m² -
1788490416 20.56° C 54% 1020.9 hPa 0 mm - 0 W/m² -
1788490116 20.56° C 53% 1020.8 hPa 0 mm - 0 W/m² -
1788489811 21.11° C 53% 1021 hPa 0 mm - 0 W/m² -
1788489508 21.11° C 51% 1020.9 hPa 0 mm - 0 W/m² -
1788489204 21.67° C 48% 1020.9 hPa 0 mm - 0 W/m² -
1788488902 21.67° C 48% 1020.6 hPa 0 mm - 0 W/m² -
1788488600 21.67° C 47% 1020.8 hPa 0 mm - 0 W/m² -
1788488296 22.22° C 46% 1020.8 hPa 0 mm - 0 W/m² -
1788487996 22.22° C 46% 1020.4 hPa 0 mm - 0 W/m² -
1788487691 22.78° C 45% 1020.7 hPa 0 mm - 0 W/m² -
1788487386 22.78° C 44% 1020.4 hPa 0 mm - 0 W/m² -

* Rain latest hour (hover to see other rain measurements)
** Current wind speed in m/s (hover to see current wind gust speed)